Location: Biharia
(46.4333°N, 22.8000°E)
Time: 04:43:34
(UTC+00:00)

Cosmos 494 Rocket - Pass Details

Date: 02 June 2022
Orbit: 742 x 770 km, 74.1° (Epoch: 05 July)

Event Time Altitude Azimuth Distance (km) Brightness Sun altitude
Rises 19:45:49 0° 348° (NNW) 3,193 8.5 -12.2°
Reaches altitude 10° 19:49:00 10° 9° (N) 2,265 7.1 -12.6°
Maximum altitude 19:52:21 17° 50° (NE) 1,812 6.0 -12.9°
Drops below altitude 10° 19:55:42 10° 91° (E) 2,259 6.1 -13.3°
Enters shadow 19:56:27 - 97° (E) 2,451 6.2 -13.3°
